Location: Oberstdorf
(47.4188°N, 10.2969°E)
Time: 13:51:53
(UTC+01:00)

OTV 5 (USA 277) - Visible Passes

Search period start: 22 February 2018 00:00
Search period end: 04 March 2018 00:00
Orbit: 404 x 417 km, 43.0° (Epoch: 07 September)

Date Brightness Start Highest point End Pass type
(mag) Time Alt. Az. Time Alt. Az. Time Alt. Az.
22 Feb ? 05:08:34 10° SSE 05:08:56 10° SSE 05:09:16 10° SE visible
23 Feb ? 05:52:17 12° SSW 05:54:37 23° SSE 05:57:17 10° ESE visible
24 Feb ? 05:03:43 18° SSE 05:03:43 18° SSE 05:06:04 10° ESE visible
25 Feb ? 05:47:48 19° SW 05:49:33 32° S 05:52:33 10° ESE visible
26 Feb ? 04:59:06 27° SSE 04:59:06 27° SSE 05:01:28 10° ESE visible
27 Feb ? 05:43:07 24° SW 05:44:33 38° S 05:47:38 10° ESE visible
28 Feb ? 04:54:23 30° SE 04:54:23 30° SE 04:56:38 10° ESE visible
28 Feb ? 06:27:33 10° WSW 06:30:31 31° SSW 06:33:28 10° SE visible
01 Mar ? 05:38:23 26° SW 05:39:33 35° S 05:42:35 10° ESE visible
02 Mar ? 04:49:40 28° SE 04:49:40 28° SE 04:51:39 10° ESE visible
02 Mar ? 06:22:52 10° WSW 06:25:26 21° SSW 06:28:00 10° SSE visible
03 Mar ? 05:33:44 23° SW 05:34:30 26° SSW 05:37:18 10° SE visible
